Location: Brno
(49.2000°N, 16.6330°E)
Time: 20:38:22
(UTC+02:00)

Explorer 11/Cluster Stage 4 - Pass Details

Date: 27 July 2021
Orbit: 467 x 1257 km, 28.8° (Epoch: 17 September)

Event Time Altitude Azimuth Distance (km) Brightness Sun altitude
Rises 14:39:53 0° 237° (WSW) 3,944 10.7 53.8°
Reaches altitude 10° 14:45:28 10° 205° (SSW) 2,776 10.1 53.2°
Maximum altitude 14:47:04 11° 191° (SSW) 2,642 9.9 53.0°
Drops below altitude 10° 14:48:36 10° 177° (S) 2,638 9.8 52.8°
Sets 14:53:21 0° 142° (SE) 3,341 9.9 52.3°
